Погода в Живайкине

Россия / Ульяновская область     53°28′52″N   47°07′49″E
темп.,
°C
ветер,
м/с
пор.,
м/с
влажн.,
%
обл.,
%
осадки,
мм/ч
давл.,
гПа
погр.,
м
12 мая, ср
ср1201:00+12зсз119178 0.0 102611
04:00+12в2590100 0.1 1025155
07:00+14всв268244 0.3 1025175
10:00+15в41369100 0.3 1025554
13:00+17вюв61452100 0.0 1024765
16:00+15в51284100 0.6 1024506
19:00+16вюв5127278 0.0 1023503
22:00+14вюв3108313 0.0 1023233
13 мая, чт
чт1301:00+12в258844 0.0 102395
04:00+14в31170100 0.0 1023247
07:00+15в5136152 0.0 1022373
10:00+18юв7125994 0.1 1022635
13:00+19вюв71570100 0.1 1021820
16:00+21юв71557100 0.1 10201673
19:00+18юв3117571 0.9 1020451
22:00+16юв377746 1.0 1020183
14 мая, пт
пт1401:00+14вюв228346 0.0 102024
04:00+13ююв128618 0.2 102111
07:00+15юв2381100 0.0 1022100
10:00+22ююв475662 0.0 1021499
13:00+25ююв793696 0.0 10211002
16:00+25ююв61141100 0.0 10201262
19:00+23ююв410535 0.0 1020476
22:00+18ююв4136384 0.0 1020272
15 мая, сб
сб1501:00+15ююв3762100 0.0 1020139
04:00+14юв356021 0.0 102086
07:00+16ююв2106042 0.0 1021230
10:00+23ююв594017 0.0 1020502
13:00+26ю792915 0.0 10201051
16:00+27ю610315 0.0 10191775
19:00+24ююв39470 0.0 1018315
22:00+18юв33595 0.0 101838
16 мая, вс
вс1601:00+16юв23603 0.0 101829
04:00+15юв23651 0.0 101844
07:00+17юв29645 0.0 1018229
10:00+24ю584420 0.0 1017559
13:00+27ю6833100 0.0 10171485
16:00+27ююз57324 0.0 10162022
19:00+24ююз36480 0.0 1016180
22:00+19ю11585 0.0 101611